Forside
METAR-TAF:

METAR-TAF

Lufthavne :

Agri-Science Center

Chillicothe, Missouri, USA

Breddekreds: 39-49N, længdekreds: 093-35W, højde: 234 m

Aktuelle vejr

Denne rapport blev lavet for 9 minutter siden, kl. 12:52 UTC
Vind 7 kt fra sydøst
Temperatur 0°C
Fugtighed 80%
Tryk 1012 hPa

METAR: KCDJ 221252Z AUTO 13007KT 00/M03 A2989 RMK AO1 SLP136 T00001028

Tid: 07:01 (13:01 UTC)


TAF: fraværende

Vejrobservationer og prognoser fra mere end 4000 lufthavne (METAR og TAF).

De gule og røde prikker repræsenterer de meteorologiske stationer.

Flyt musen over at se navnet på stationen.

Så klik over at se vejr observationer og prognoser.

At skifte det kort: Klik på de grønne knapper med et sort kors for at zoome ind; på den grønne knap med en bindestreg for at zoome ud; eller på de grønne pile for tilstødende kort.


METAR-TAF: